sat.trackr.live / text

‹ back to catalog

STARLINK-32174

NORAD 61509 · 2024-183A

PAYLOAD ACTIVE UNKNOWN

§ Identity

Operator
Country
US
Launch date
2024-10-15
Launch site
AFETR
Launch vehicle
Mass (kg)
RCS (m²)

Purposes: comms

External: N2YO · Heavens-Above · Gunter

§ Orbital elements

Epoch: 2026-09-21T18:49:20.082144Z

Period
93.85 min
Inclination
53.1616°
Eccentricity
0.0001068
Mean motion
15.34392618 rev/d
Perigee alt
462.0 km
Apogee alt
463.5 km
Semi-major
6,840.9 km
B*
3.5208e-5
RAAN
295.4032°
Arg perigee
82.2523°
Mean anomaly
277.8600°
Rev number
10,990

§ Raw data

STARLINK-321741 61509U 24183A   26264.78426021  .00000813  00000+0  35208-4 0  99922 61509  53.1616 295.4032 0001068  82.2523 277.8600 15.34392618109908

JSON: /api/v1/satellites/61509 · /tle

For live sub-satellite position, see the globe view (requires WebGL).

§ Visibility from observer

Set your observer location to see the next 7 days of passes ≥ 10°. The values pass through the URL so the page stays shareable.

No JS? Fill the form by hand. The geolocation button needs JavaScript.